TimeEST,TemperatureF,Dew PointF,Humidity,Sea Level PressureIn,VisibilityMPH,Wind Direction,Wind SpeedMPH,Gust SpeedMPH,PrecipitationIn,Events,Conditions,WindDirDegrees,DateUTC
1:54 AM,45.0,33.1,63,30.63,-9999.0,NE,6.9,-,N/A,,Unknown,50,2012-11-18 06:54:00
3:54 AM,44.1,36.0,73,30.63,-9999.0,NE,5.8,-,N/A,,Unknown,40,2012-11-18 08:54:00
5:54 AM,44.1,36.0,73,30.67,-9999.0,NE,4.6,-,N/A,,Unknown,40,2012-11-18 10:54:00
6:54 AM,44.1,35.1,71,30.67,-9999.0,NNE,6.9,-,N/A,,Unknown,30,2012-11-18 11:54:00
7:54 AM,45.0,37.9,76,30.67,-9999.0,NNE,6.9,16.1,N/A,,Unknown,30,2012-11-18 12:54:00
8:54 AM,46.9,37.0,68,30.68,-9999.0,ENE,9.2,-,N/A,,Unknown,60,2012-11-18 13:54:00
10:54 AM,46.9,35.1,63,30.68,-9999.0,NE,9.2,17.3,N/A,,Unknown,50,2012-11-18 15:54:00
11:54 AM,48.9,34.0,56,30.65,-9999.0,NE,10.4,16.1,N/A,,Unknown,50,2012-11-18 16:54:00
12:54 PM,48.9,34.0,56,30.64,-9999.0,ENE,10.4,19.6,N/A,,Unknown,60,2012-11-18 17:54:00
1:54 PM,50.0,34.0,54,30.63,-9999.0,Variable,5.8,16.1,N/A,,Unknown,0,2012-11-18 18:54:00
2:54 PM,48.9,33.1,54,30.62,-9999.0,NE,9.2,-,N/A,,Unknown,50,2012-11-18 19:54:00
3:54 PM,48.0,33.1,56,30.63,-9999.0,ENE,6.9,-,N/A,,Unknown,60,2012-11-18 20:54:00
4:54 PM,46.9,32.0,56,30.63,-9999.0,ENE,9.2,-,N/A,,Unknown,60,2012-11-18 21:54:00
5:54 PM,46.9,32.0,56,30.62,-9999.0,ENE,10.4,-,N/A,,Unknown,60,2012-11-18 22:54:00
6:54 PM,46.0,33.1,61,30.63,-9999.0,ENE,8.1,-,N/A,,Unknown,60,2012-11-18 23:54:00
7:54 PM,46.0,35.1,66,30.63,-9999.0,ENE,5.8,-,N/A,,Unknown,60,2012-11-19 00:54:00
8:54 PM,46.0,35.1,66,30.62,-9999.0,NE,8.1,16.1,N/A,,Unknown,50,2012-11-19 01:54:00
9:54 PM,46.0,36.0,68,30.61,-9999.0,NE,5.8,-,N/A,,Unknown,50,2012-11-19 02:54:00
10:54 PM,45.0,37.0,74,30.60,-9999.0,NE,8.1,-,N/A,,Unknown,50,2012-11-19 03:54:00
11:54 PM,45.0,37.9,76,30.59,-9999.0,NNE,8.1,-,N/A,,Unknown,30,2012-11-19 04:54:00